SL-14 R/B, 18794

Orbit data source: Space-Track

SL-14 R/B, 18794 is space debris in LEO originally from a launch on Fri, 15 Jan 1988 UTC launched from the Plesetsk Missile And Space Complex (PKMTR). Debris objects in space refer to the collection of defunct objects orbiting the Earth. Examples of debris include non-operational satellites, rocket bodies, and fragments generated from explosions, collisions, or faulty payload assembly.

Loading next visibility...
Identifier
18794, 1988-002G
Orbit
LEO
Last TLE update
16 hours ago
Origin
Manufacturer
Yuzhnoe
Mission
Spacecraft
Bus & Motor
S5M, Unknown motor
Mass
1,600 kg wet, 1,600 kg dry
Launch date (UTC)
1988-01-15 (37 years ago)
Launch vehicle
Unknown
Launch site
Plesetsk Missile And Space Complex (PKMTR)
Object type
Payload
Rocket body
Debris
Shape & HBR
Cyl, 2.7 m
Radar Cross Section
7.351 m², Large (>1 m²)

Expand to show TLE details & history

TLE from 16 hours ago
0 SL-14 R/B
1 18794U 88002G   25181.70568403  .00000012  00000-0  67833-5 0  9992
2 18794  82.5998 243.4849 0037732 180.8855 295.6777 12.55582216716636
Epoch: 2025-06-30T16:56Z
TLE epoch observation values (Epoch: 2025-06-30T16:56:11.1Z)
Latitude
62.95653°
Longitude
-124.23845°
Altitude
1,439.316 km
Speed
7.153 km/s
True Right ascension
03h 15m 16s
True Declination
62° 49' 45"
Sunlit
Object was in daylight at epoch
Visualization orbit readout
Latitude
-68.40683°
Longitude
50.94302°
Altitude
1,477.488 km
Speed
7.119 km/s
Apparent Right ascension
10h 52m 14s
Apparent Declination
-63° 44' 31"
Sunlit
Object is in daylight
Visualization observer readout
Local Sidereal Time
20:47:41
Azimuth
207.214° SW
Elevation
-59.985°
Doppler factor
1
Orbital elements
Apogee altitude
1,468.056 km
Perigee altitude
1,409.068 km
Semi-major axis
7,816.699 km
Eccentricity
0.00377
Inclination
82.5998°
RAAN
243.4849°
Arg. of periapsis
180.8855°
True anomaly
Unknown
Mean anomaly
295.6777°
Eccentric anomaly
Unknown
Mean motion
3.14057 °/min
Orbital period
114.63 mins
BSTAR
0.0000067833
Loading maneuver chart data...
Loading SW <> Apogee altitude chart data...
Loading historical data...
Loading historical data...
Loading historical data...
Loading historical data...
Loading historical data...
Loading historical data...
Loading historical data...

SL-14 R/B Visibility forecast

Observer location: undefined°, undefined°

Span
Click to sort rows by Start time (UTC) header in descending order
Start Az.
Max El. time (UTC)
Max El. Az.
Max El.
End time (UTC)
End Az.
8 mins2025-07-01 13:59:27.147Z30.617° NE2025-07-01 14:03:27.147Z60.947° ENE15.295°2025-07-01 14:07:27.147Z91.651° ESE
15 mins2025-07-01 15:53:27.147Z354.545° N2025-07-01 16:00:27.147Z72.24° E44.78°2025-07-01 16:08:27.147Z171.032° S
8 mins2025-07-01 17:51:27.147Z310.465° NW2025-07-01 17:55:27.147Z277.638° WNW17.401°2025-07-01 17:59:27.147Z246.731° WSW
8 mins2025-07-02 02:54:27.147Z102.768° ESE2025-07-02 02:57:27.147Z79.935° E15.822°2025-07-02 03:02:27.147Z43.189° NE
15 mins2025-07-02 04:45:27.147Z184.237° SSW2025-07-02 04:52:27.147Z21.063° NNE44.855°2025-07-02 05:00:27.147Z8.077° NNE
10 mins2025-07-02 06:44:27.147Z261.714° W2025-07-02 06:48:27.147Z292.54° NW17.735°2025-07-02 06:54:27.147Z337.853° N
|